Location: La Comballaz
(46.3780°N, 7.0817°E)
Time: 18:45:56
(UTC+00:00)

STARLINK-1205 - Pass Details

Date: 09 April 2020
Orbit: 548 x 551 km, 53.0° (Epoch: 25 May)

Event Time Altitude Azimuth Distance (km) Brightness Sun altitude
Rises 20:13:10 0° 295° (WNW) 2,734 8.7 -19.8°
Reaches altitude 10° 20:15:39 10° 283° (WNW) 1,836 7.2 -20.1°
Maximum altitude 20:19:10 27° 225° (SW) 1,093 5.2 -20.6°
Enters shadow 20:20:06 24° 202° (SSW) 1,162 5.1 -20.8°
